User: anonymous   Login
Location: Unspecified
(0.0000°N, 0.0000°E)
Time: 05:26:05
(UTC+00:00)
Language:

Tiangong 1 - Orbit

View from above orbital plane
View from above orbital plane
View from above satellite
View from above satellite

Ground track
Ground track

The orbit data is extracted from the following two-line orbital elements,

1 37820U 11053A   16180.88109016  .00010209  00000-0  11117-3 0  9995
2 37820  42.7625 177.3211 0012664 125.0616 308.1319 15.63446459272418
Epoch (UTC): 28 June 2016 21:08:46
Eccentricity: 0.0012664
inclination: 42.7625°
perigee height: 369 km
apogee height: 386 km
right ascension of ascending node: 177.3211°
argument of perigee: 125.0616°
revolutions per day: 15.63446459
mean anomaly at epoch: 308.1319°
orbit number at epoch: 27241

The dashed part of the orbit path shows where the satellite is in the earth's shadow,  

DLR